Regional Weather Roundup
Issued by NWS

Home | Current Version | Previous Version | Graphics & Text | Print | Product List | Glossary On
Versions: 1 2 3 4 5 6 7 8 9 10 11 12 13 14 15 16 17 18 19 20 21 22 23 24 25 26 27 28 29 30 31 32 33 34 35 36 37 38 39 40 41 42 43 44 45 46 47 48 49 50
000
ASUS43 KMPX 270210
RWRMN
WEATHER ROUNDUP FOR MINNESOTA
NATIONAL WEATHER SERVICE TWIN CITIES/CHANHASSEN MN
900 PM CDT MON JUN 26 2017


NOTE: "FAIR" INDICATES FEW OR NO CLOUDS BELOW 12,000 FEET WITH NO
SIGNIFICANT WEATHER AND/OR OBSTRUCTIONS TO VISIBILITY. N/A MEANS
CURRENT SKY AND/OR WEATHER CONDITIONS ARE NOT AVAILABLE.

MNZ060>063-068>070-270300-
   Twin Cities Metro

CITY           SKY/WX    TMP DP  RH WIND       PRES   REMARKS
TWIN CITIES    CLEAR     67  42  40 NW5       30.09F
ST PAUL        CLEAR     65  43  44 N5        30.09F
CRYSTAL        CLEAR     66  40  38 W3        30.08F
BLAINE         PTCLDY    66  43  42 CALM      30.09F
LAKEVILLE      CLEAR     61  48  63 CALM      30.10S
EDEN PRAIRIE   CLEAR     66  43  43 CALM      30.09S
SOUTH ST PAUL  CLEAR     66  43  42 CALM      30.09S
LAKE ELMO      FAIR      63  46  55 CALM      30.10S
$$
MNZ001>005-007-008-013>017-022>024-027-028-270300-
   Northwest Minnesota

CITY           SKY/WX    TMP DP  RH WIND       PRES   REMARKS
BEMIDJI        CLEAR     63  41  43 W5        30.07S
HALLOCK        CLEAR     66  46  48 CALM      30.03F
ROSEAU         CLEAR     64  48  55 W3        30.03F
WARROAD        CLEAR     66  50  55 W3        30.03F
THIEF RVR FALL CLEAR     65  44  46 W5        30.06F
CROOKSTON      CLEAR     66  46  48 W6        30.06F
FOSSTON        CLEAR     63  43  48 CALM      30.08S
DETROIT LAKES  CLEAR     64  39  39 CALM      30.10F
MOORHEAD       CLEAR     66  39  37 W5        30.08F
PARK RAPIDS    CLEAR     62  40  44 W6        30.08F
MAHNOMEN       FAIR      63  44  49 W5        30.08F
$$
MNZ006-009>011-018-025>026-270300-
   North Central Minnesota

CITY           SKY/WX    TMP DP  RH WIND       PRES   REMARKS
BAUDETTE       CLEAR     63  48  58 W3        30.03F
FLAG ISLAND    CLEAR     66  46  48 CALM      30.00F
INTL FALLS     CLEAR     62  46  55 W3        30.01F
WASKISH        CLEAR     64  52  63 W6        30.04F
BIG FORK       PTCLDY    57  48  72 CALM      30.05S
LONGVILLE      CLEAR     57  46  67 CALM      30.07F
GRAND RAPIDS   CLEAR     63  42  46 W5        30.07F
CRANE LAKE     CLOUDY    57  52  82 CALM      30.03S
ORR            PTCLDY    54  48  82 CALM      30.01S
COOK           CLEAR     59  50  72 CALM      30.03F
WALKER         FAIR      61  42  50 W3        30.07F
$$
MNZ012-019>021-037-270300-
   Northeast Minnesota

CITY           SKY/WX    TMP DP  RH WIND       PRES   REMARKS
DULUTH         CLOUDY    59  49  69 SW5       30.04F
ELY            CLEAR     57  48  72 CALM      30.02F
HIBBING        MOCLDY    62  42  47 W9        30.04S
EVELETH        PTCLDY    58  49  74 CALM      30.04F
DULUTH HARBOR  MOCLDY    63  52  67 S5        30.04F
TWO HARBORS    PTCLDY    57  54  88 CALM      30.02S
SILVER BAY     CLEAR     55  52  88 CALM      30.01S
GRAND MARAIS     N/A     49  46  90 CALM      29.98F
G MARAIS ARPRT CLEAR     54  43  66 W3        30.02S
$$
MNZ029>031-032-039>041-046>048-054>057-064-270300-
   West Central Minnesota

CITY           SKY/WX    TMP DP  RH WIND       PRES   REMARKS
FERGUS FALLS   CLEAR     64  45  48 W3        30.07F
WHEATON        CLEAR     66  43  42 CALM      30.13S
MORRIS         CLEAR     66  39  37 CALM      30.11S
ALEXANDRIA     CLEAR     64  41  42 W3        30.12F
ELBOW LAKE     FAIR      64  44  47 SW3       30.11F
WADENA         CLEAR     61  46  59 CALM      30.09F
GLENWOOD       CLEAR     63  45  51 NW3       30.12F
APPLETON       CLEAR     66  41  39 CALM      30.12S
BENSON         CLEAR     64  45  48 CALM      30.13F
ORTONVILLE     CLEAR     64  43  45 CALM      30.12S
MADISON        CLEAR     70  37  30 CALM      30.13S
WILLMAR        FAIR      66  43  42 NW3       30.13S
$$
MNZ033>034-036-042>043-049>051-058-059-270300-
   Central Minnesota

CITY           SKY/WX    TMP DP  RH WIND       PRES   REMARKS
ST CLOUD       CLEAR     63  46  54 NW5       30.09F
SAUK CENTRE    FAIR      63  42  45 W3        30.11F
PAYNESVILLE    CLEAR     64  41  43 CALM      30.11F
AITKIN         CLEAR     57  45  62 CALM      30.06F
PINE RIVER     CLEAR     63  46  55 CALM      30.11S
BRAINERD       CLEAR     64  42  44 W5        30.09S
STAPLES        CLEAR     61  43  51 W5        30.09F
LONG PRAIRIE   FAIR      63  43  48 SW3       30.11F
LITTLE FALLS   CLEAR     61  43  51 CALM      30.10S
LITCHFIELD     PTCLDY    66  45  45 NW3       30.11F
BUFFALO        CLEAR     65  41  40 CALM      30.11S
MAPLE LAKE     CLEAR     64  47  53 W3        30.11S
HUTCHINSON     CLEAR     65  46  49 W3        30.12S
$$
MNZ037-044-045-052-053-270300-
   East Central Minnesota

CITY           SKY/WX    TMP DP  RH WIND       PRES   REMARKS
PRINCETON      CLEAR     61  48  63 CALM      30.09F
MORA           CLEAR     61  43  51 CALM      30.10S
CAMBRIDGE      CLEAR     64  48  55 CALM      30.07F
RUSH CITY      MOCLDY    59  45  58 CALM      30.08S
MOOSE LAKE     CLEAR     59  45  58 W3        30.05S
HINCKLEY       FAIR      63  46  55 W3        30.07F
CLOQUET        MOCLDY    57  48  72 CALM      30.06S
MCGREGOR       CLEAR     63  43  48 W3        30.07S
$$
MNZ071>073-080-081-089-090-097-098-270300-
   Southwest Minnesota

CITY           SKY/WX    TMP DP  RH WIND       PRES   REMARKS
MONTEVIDEO     CLEAR     66  39  37 CALM      30.13S
GRANITE FALLS  CLEAR     66  46  47 CALM      30.14F
CANBY          CLEAR     65  44  46 CALM      30.14F
MARSHALL       CLEAR     66  42  41 N3        30.14S
REDWOOD FALLS  CLEAR     65  42  43 W3        30.12S
OLIVIA         CLEAR     63  41  45 N3        30.12S
PIPESTONE      CLEAR     66  39  37 CALM      30.14F
WINDOM         CLEAR     63  43  48 CALM      30.14S
WORTHINGTON    CLEAR     64  41  42 N3        30.15S
JACKSON        CLEAR     63  43  48 CALM      30.14F
TRACY          CLEAR     64  43  46 CALM      30.14S
SLAYTON        CLEAR     63  41  43 CALM      30.16S
$$
MNZ065>067-074>077-082>085-091>093-270300-
   South Central Minnesota

CITY           SKY/WX    TMP DP  RH WIND       PRES   REMARKS
MANKATO        CLEAR     65  43  44 CALM      30.12S
NEW ULM        CLEAR     64  39  39 CALM      30.12S
ST JAMES       CLEAR     64  45  48 W3        30.13F
FAIRMONT       CLEAR     64  42  44 N3        30.13F
GLENCOE        CLEAR     65  48  53 CALM      30.10F
FARIBAULT      PTCLDY    63  46  55 CALM      30.11S
OWATONNA       CLEAR     63  46  55 NE5       30.11S
WASECA         CLEAR     61  43  51 NW3       30.12S
ALBERT LEA     CLEAR     63  43  48 CALM      30.12S
$$
MNZ078>079-086>088-094>096-270300-
   Southeast Minnesota

CITY           SKY/WX    TMP DP  RH WIND       PRES   REMARKS
ROCHESTER      CLEAR     58  46  64 NE6       30.12S
RED WING       CLEAR     59  50  72 CALM      30.09S
STANTON        CLEAR     63  50  63 CALM      30.10S
DODGE CENTER   PTCLDY    59  46  63 CALM      30.12S
WINONA         CLEAR     61  45  55 CALM      30.10S
AUSTIN         CLEAR     63  43  48 CALM      30.11S
PRESTON        CLEAR     58  45  62 N5        30.12R
$$
ABBREVIATIONS USED IN REMARKS
   TC - TEMPERATURES IN CELSIUS
  WCI - WIND CHILL INDEX
   HX - HEAT INDEX
  VSB - VISIBILITY
$$



USA.gov is the U.S. government's official web portal to all federal, state and local government web resources and services.